Weather Roundup
Issued by NWS

Home | Current Version | Previous Version | Text Only | Print | Product List | Glossary On
Versions: 1 2 3 4 5 6 7 8 9 10 11 12 13 14 15 16 17 18 19 20 21 22 23 24 25 26 27 28 29 30 31 32 33 34 35 36 37 38 39 40 41 42 43 44 45 46 47 48 49 50
382
NZUS93 KARX 281310
HRRWXR

CURRENT HOURLY OBSERVATIONS ACROSS
MUCH OF THE UPPER MISSISSIPPI VALLEY
NATIONAL WEATHER SERVICE LA CROSSE WI
800 AM CDT WED JUN 28 2017


...SOUTHEAST MINNESOTA...


CITY           SKY/WX    TMP DP  RH WIND       PRES   REMARKS
ROCHESTER      LGT RAIN  63  62  97 SE16G24   29.72R
ROCHESTER/MAYO CLOUDY    63  63 100 SE15      29.71R
WINONA         CLOUDY    63  61  94 SE9       29.71F
AUSTIN         LGT RAIN  63  59  88 S10G21    29.70R
ALBERT LEA     LGT RAIN  64  63  94 S13       29.67S
DODGE CENTER   LGT RAIN  63  61  94 SE17G23   29.70R
PRESTON        CLOUDY    63  60  90 SE16G28   29.73F
OWATONNA       DRIZZLE   66  63  88 SE10      29.68R
FARIBAULT      DRIZZLE   64  63  94 S7        29.67S
$$

...ELSEWHERE IN MINNESOTA...


CITY           SKY/WX    TMP DP  RH WIND       PRES   REMARKS
MINNEAPOLIS    RAIN      65  62  90 S13G21    29.63F
INTNL FALLS    CLOUDY    57  48  72 E7        29.64F
DULUTH         CLOUDY    57  49  74 SE10      29.69S
RED WING       LGT RAIN  64  61  88 SE6       29.66F
REDWOOD FALLS  CLOUDY    66  62  87 SW8       29.57S
MANKATO        LGT RAIN  66  63  90 S6        29.65R
WORTHINGTON    PTSUNNY   67  62  84 S22G31    29.62F
FAIRMONT       CLOUDY    67  64  90 SW16      29.64S
$$

...SOUTHWEST WISCONSIN...


CITY           SKY/WX    TMP DP  RH WIND       PRES   REMARKS
LA CROSSE      LGT RAIN  67  63  87 S20       29.73F
PRAIRIE DU CHI CLOUDY    62  60  95 E8        29.83F
BOSCOBEL       RAIN      64  62  93 VRB3      29.85F FOG
LONE ROCK      RAIN      62  58  86 SW6       29.89R FOG
PLATTEVILLE    CLOUDY    62  62 100 S10       29.91R
FORT MC COY    DRIZZLE   63  56  79 S10G18    29.81F
CAMP DOUGLAS   CLOUDY    64  54  68 S8        29.83R
MAUSTON-NEW LI CLOUDY    64  55  71 S13G20    29.83R
VIROQUA        CLOUDY    61  61 100 S12G18    29.83F
WIS DELLS      LGT RAIN  59  54  82 S12       29.87R
$$

...ELSEWHERE IN WISCONSIN...


CITY           SKY/WX    TMP DP  RH WIND       PRES   REMARKS
MILWAUKEE      CLOUDY    66  51  58 S12       29.96R
MADISON        CLOUDY    64  53  67 S10       29.89S
GREEN BAY      CLOUDY    63  53  70 S10       29.90R
EAU CLAIRE     CLOUDY    62  54  74 S12       29.70F
BLACK RVR FLS  CLOUDY    65  52  62 SE6       29.76F
MEDFORD        RAIN      55  52  90 SE10      29.79S
WAUSAU           N/A    N/A N/A N/A MISG      29.82S
WIS RAPIDS     CLOUDY    59  55  87 S9        29.85R
MARSHFIELD     LGT RAIN  57  52  83 SE6       29.82R
RICE LAKE      CLOUDY    61  50  66 SE13      29.70F
$$

...NORTHEAST IOWA...


CITY           SKY/WX    TMP DP  RH WIND       PRES   REMARKS
WATERLOO       CLOUDY    66  62  87 SE20G30   29.68F
DUBUQUE        LGT RAIN  62  61  96 S8        29.91S
DECORAH        CLOUDY    63  63 100 SE14G24   29.76F
MASON CITY     CLOUDY    68  63  84 SW12      29.71R
CHARLES CITY   LGT RAIN  64  64 100 SE15      29.74R
OELWEIN        CLOUDY    66  64  94 SE20G26   29.78F
$$

...ELSEWHERE IN IOWA...


CITY           SKY/WX    TMP DP  RH WIND       PRES   REMARKS
DES MOINES     CLOUDY    70  61  73 S14       29.73F
IOWA CITY      CLOUDY    67  65  93 SE12      29.86F
FORT DODGE     CLOUDY    66  61  82 SW15G23   29.71S
MARSHALLTOWN   LGT RAIN  68  64  87 S16       29.70F
CEDAR RAPIDS   CLOUDY    65  65 100 SE13G20   29.83F
$$

...NORTHERN ILLINOIS...


CITY           SKY/WX    TMP DP  RH WIND       PRES   REMARKS
CHICAGO-OHARE  CLOUDY    66  49  54 S14       29.99R
CHICAGO-MIDWAY CLOUDY    67  49  52 S13       30.01R
MOLINE         TSTM      64  61  90 S5        29.94R VSB 3/4
ROCKFORD       CLOUDY    66  53  63 S13       29.96R
PEORIA         CLOUDY    65  56  72 S14       29.98R
$$

NOTE: "FAIR" INDICATES FEW OR NO CLOUDS BELOW 12,000 FEET WITH NO
SIGNIFICANT WEATHER AND/OR OBSTRUCTIONS TO VISIBILITY. WIND
SPEEDS ARE IN MILES-PER-HOUR.




USA.gov is the U.S. government's official web portal to all federal, state and local government web resources and services.